User: anonymous   Login
Location: Unspecified
(0.0000°N, 0.0000°E)
Time: 06:09:27
(UTC+00:00)
Language:

AEHF 1 (USA 214) - Orbit

View from above orbital plane
View from above orbital plane
View from above satellite
View from above satellite

Ground track
Ground track

The orbit data is extracted from the following two-line orbital elements,

1 36868U 10039A   17227.50182240 0.00000000  00000-0  00000-0 0    08
2 36868   0.6521 148.8615 0003841 293.4854  66.4792  1.00270000    05
Epoch (UTC): 15 August 2017 12:02:37
Eccentricity: 0.0003841
inclination: 0.6521°
perigee height: 35770 km
apogee height: 35803 km
right ascension of ascending node: 148.8615°
argument of perigee: 293.4854°
revolutions per day: 1.00270000
mean anomaly at epoch: 66.4792°
orbit number at epoch: 0

The dashed part of the orbit path shows where the satellite is in the earth's shadow,  

DLR